sat.trackr.live / text

‹ back to catalog

ONEWEB-0152

NORAD 48043 · 2021-025B

PAYLOAD ACTIVE UNKNOWN

§ Identity

Operator
Country
UK
Launch date
2021-03-25
Launch site
VOSTO
Launch vehicle
Mass (kg)
RCS (m²)

Purposes: comms

External: N2YO · Heavens-Above · Gunter

§ Orbital elements

Epoch: 2026-05-24T22:55:19.674048Z

Period
109.63 min
Inclination
87.8942°
Eccentricity
0.0001836
Mean motion
13.13468563 rev/d
Perigee alt
1,208.4 km
Apogee alt
1,211.2 km
Semi-major
7,587.9 km
B*
9.1833e-4
RAAN
324.8476°
Arg perigee
87.3431°
Mean anomaly
272.7909°
Rev number
25,050

§ Raw data

ONEWEB-01521 48043U 21025B   26144.95508882  .00000348  00000+0  91833-3 0  99922 48043  87.8942 324.8476 0001836  87.3431 272.7909 13.13468563250505

JSON: /api/v1/satellites/48043 · /tle

For live sub-satellite position, see the globe view (requires WebGL).

§ Visibility from observer

Set your observer location to see the next 7 days of passes ≥ 10°. The values pass through the URL so the page stays shareable.

No JS? Fill the form by hand. The geolocation button needs JavaScript.